Home   Weather   Wolfenbüttel   Past weeks

Flag for Germany Past Weather in Wolfenbüttel, Lower Saxony, Germany — Yesterday and Last 2 Weeks

Now
32 °F

Clear.


Feels Like: 32 °F
Forecast: 14 / 34 °F
Wind: 2 mph from North

Location: Braunschweig Wolfsburg

Current Time: Jan 19, 2017 at 6:27:46 pm

Latest Report: Jan 19, 2017 at 5:20 pm


Visibility: 10 mi

Pressure: 30.63 "Hg

Humidity: 75%

Dew Point: 25 °F

Location of WolfenbüttelLocation

Past Weather in Wolfenbüttel — Graph

°F

Wolfenbüttel Temperature Yesterday

Maximum temperature yesterday: 37 °F (at 4:20 pm)
Minimum temperature yesterday: 21 °F (at 7:50 pm)
Average temperature yesterday: 25 °F

High & Low Weather Summary for the Past Weeks

 TemperatureHumidityPressure
High43 °F (Jan 12, 12:50 pm)100% (Jan 8, 1:50 pm)30.77 "Hg (Jan 8, 1:50 pm)
Low12 °F (Jan 6, 6:50 am)48% (Jan 8, 9:50 am)28.94 "Hg (Jan 13, 6:50 am)
Average31 °F85%30.15 "Hg
* Reported Jan 4 5:20 pm — Jan 19 5:20 pm, Wolfenbüttel, Weather by CustomWeather, © 2017

Note: Actual official high and low records may vary slightly from our data, if they occured in-between our weather recording intervals... More about our weather records

Advertising

Wolfenbüttel Weather History for the Previous 24 Hours

Scroll right to see more
 ConditionsComfort  
Time TempWeatherWind HumidityBarometerVisibility
5:20 pm
Thu, Jan 19
32 °FClear.2 mph75%30.63 "Hg10 mi
4:20 pm32 °FSunny.1 mph80%30.63 "Hg10 mi
3:50 pm34 °FSunny.3 mph70%30.63 "Hg10 mi
3:20 pm34 °FSunny.3 mph70%30.66 "Hg10 mi
2:50 pm34 °FSunny.3 mph70%30.63 "Hg10 mi
2:20 pm34 °FSunny.5 mph70%30.66 "Hg10 mi
1:50 pm32 °FSunny.3 mph75%30.66 "Hg10 mi
1:20 pm32 °FSunny.3 mph75%30.66 "Hg10 mi
12:20 pm30 °FSunny.3 mph80%30.66 "Hg10 mi
11:50 am30 °FSunny.3 mph80%30.66 "Hg10 mi
11:20 am30 °FSunny.2 mph80%30.69 "Hg10 mi
10:20 am28 °FClear.3 mph80%30.69 "Hg6 mi
9:50 am27 °FClear.5 mph86%30.69 "Hg5 mi
9:20 am25 °FClear.2 mph93%30.69 "Hg5 mi
8:50 am25 °FClear.3 mph93%30.69 "Hg4 mi
7:50 am23 °FOvercast.No wind93%30.66 "Hg4 mi
7:20 am23 °FClear.2 mph93%30.66 "Hg6 mi
6:50 am23 °FClear.2 mph93%30.66 "Hg6 mi
11:20 pm
Wed, Jan 18
25 °FClear.No wind93%30.69 "Hg10 mi
10:50 pm23 °FClear.2 mph100%30.69 "Hg10 mi
10:20 pm23 °FClear.2 mph100%30.69 "Hg5 mi
9:20 pm23 °FClear.2 mph100%30.69 "Hg4 mi
8:50 pm23 °FClear.2 mph93%30.72 "Hg4 mi
8:20 pm23 °FClear.1 mph93%30.72 "Hg4 mi
7:50 pm21 °FClear.2 mph100%30.69 "Hg3 mi
7:20 pm23 °FClear.2 mph100%30.72 "Hg4 mi
6:20 pm25 °FClear.No wind100%30.72 "Hg5 mi
Weather by CustomWeather, © 2017

See weather overviewHow to use our weather pages